| time (UTC) | temp F | wind direction | speed MPH | gust MPH | rain 1hr in | rain 24hr in | rain mn in | humidity % | barometer mb |
| 20260902094523 | 74 | 221 | 14.0 | 21.0 | 0.00 | 0.00 | 0.00 | 52 | 1009.1 |
| 20260902093021 | 74 | 200 | 12.0 | 17.0 | 0.00 | 0.00 | 0.00 | 52 | 1009.2 |
| 20260902091519 | 74 | 198 | 12.0 | 18.0 | 0.00 | 0.00 | 0.00 | 52 | 1009.3 |
| 20260902090025 | 74 | 195 | 11.0 | 16.0 | 0.00 | 0.00 | 0.00 | 52 | 1009.4 |
| 20260902084516 | 74 | 183 | 10.0 | 17.0 | 0.00 | 0.00 | 0.00 | 52 | 1009.5 |
| 20260902083014 | 74 | 185 | 11.0 | 19.0 | 0.00 | 0.00 | 0.00 | 52 | 1009.5 |
| 20260902081510 | 73 | 200 | 8.0 | 15.0 | 0.00 | 0.00 | 0.00 | 53 | 1009.6 |
| 20260902080010 | 73 | 166 | 10.0 | 15.0 | 0.00 | 0.00 | 0.00 | 52 | 1009.7 |
| 20260902074507 | 74 | 185 | 8.0 | 15.0 | 0.00 | 0.00 | 0.00 | 52 | 1009.7 |
| 20260902073008 | 74 | 360 | 9.0 | 15.0 | 0.00 | 0.00 | 0.00 | 52 | 1009.7 |
| 20260902071504 | 74 | 196 | 8.0 | 13.0 | 0.00 | 0.00 | 0.00 | 52 | 1009.6 |
| 20260902070007 | 75 | 182 | 9.0 | 14.0 | 0.00 | 0.00 | 0.00 | 50 | 1009.6 |
| 20260902064508 | 75 | 171 | 9.0 | 15.0 | 0.00 | 0.00 | 0.00 | 50 | 1009.7 |
| 20260902063003 | 75 | 194 | 9.0 | 14.0 | 0.00 | 0.00 | 0.00 | 51 | 1009.7 |
| 20260902061621 | 74 | 178 | 6.0 | 12.0 | 0.00 | 0.00 | 0.00 | 51 | 1009.6 |
| 20260902060109 | 75 | 180 | 7.0 | 13.0 | 0.00 | 0.00 | 0.00 | 50 | 1009.5 |
| 20260902054557 | 75 | 200 | 7.0 | 12.0 | 0.00 | 0.00 | 0.00 | 51 | 1009.6 |
| 20260902053102 | 74 | 189 | 7.0 | 12.0 | 0.00 | 0.00 | 0.00 | 51 | 1009.6 |
| 20260902051605 | 75 | 192 | 7.0 | 11.0 | 0.00 | 0.00 | 0.00 | 49 | 1009.6 |
| 20260902050049 | 77 | 173 | 5.0 | 9.0 | 0.00 | 0.00 | 0.00 | 47 | 1009.5 |
| 20260902044605 | 77 | 176 | 5.0 | 9.0 | 0.00 | 0.00 | 0.00 | 46 | 1009.5 |
| 20260902043049 | 78 | 142 | 4.0 | 8.0 | 0.00 | 0.00 | 0.00 | 45 | 1009.6 |
| 20260902041551 | 78 | 177 | 4.0 | 8.0 | 0.00 | 0.00 | 0.00 | 43 | 1009.5 |
| 20260902040047 | 79 | 180 | 4.0 | 10.0 | 0.00 | 0.00 | 0.00 | 42 | 1009.4 |
| 20260902034547 | 80 | 153 | 5.0 | 10.0 | 0.00 | 0.00 | 0.00 | 41 | 1009.2 |
| 20260902033046 | 81 | 167 | 4.0 | 8.0 | 0.00 | 0.00 | 0.00 | 40 | 1009.1 |
| 20260902031556 | 81 | 360 | 4.0 | 9.0 | 0.00 | 0.00 | 0.00 | 40 | 1009.0 |
| 20260902030046 | 82 | 166 | 4.0 | 7.0 | 0.00 | 0.00 | 0.00 | 39 | 1008.8 |
| 20260902024552 | 83 | 360 | 4.0 | 8.0 | 0.00 | 0.00 | 0.00 | 38 | 1008.7 |
| 20260902023046 | 83 | 152 | 3.0 | 9.0 | 0.00 | 0.00 | 0.00 | 37 | 1008.4 |
| 20260902021549 | 84 | 154 | 4.0 | 9.0 | 0.00 | 0.00 | 0.00 | 37 | 1008.1 |
| 20260902020045 | 84 | 153 | 5.0 | 9.0 | 0.00 | 0.00 | 0.00 | 37 | 1007.9 |
| 20260902014543 | 84 | 178 | 4.0 | 9.0 | 0.00 | 0.00 | 0.00 | 35 | 1007.9 |
| 20260902013045 | 85 | 153 | 5.0 | 9.0 | 0.00 | 0.00 | 0.00 | 34 | 1007.9 |
| 20260902011543 | 87 | 360 | 4.0 | 11.0 | 0.00 | 0.00 | 0.00 | 32 | 1007.6 |
| 20260902010045 | 87 | 183 | 6.0 | 9.0 | 0.00 | 0.00 | 0.00 | 30 | 1007.6 |
| 20260902004541 | 89 | 192 | 6.0 | 14.0 | 0.00 | 0.00 | 0.00 | 28 | 1007.3 |
| 20260902003041 | 90 | 360 | 10.0 | 17.0 | 0.00 | 0.00 | 0.00 | 29 | 1007.3 |
| 20260902001540 | 90 | 173 | 9.0 | 16.0 | 0.00 | 0.00 | 0.00 | 29 | 1007.3 |
| 20260902000040 | 91 | 360 | 8.0 | 18.0 | 0.00 | 0.00 | 0.00 | 28 | 1007.2 |
| 20260901234539 | 91 | 192 | 11.0 | 19.0 | 0.00 | 0.00 | 0.00 | 25 | 1007.1 |
| 20260901233038 | 92 | 163 | 6.0 | 16.0 | 0.00 | 0.00 | 0.00 | 27 | 1006.8 |
| 20260901231545 | 92 | 196 | 14.0 | 19.0 | 0.00 | 0.00 | 0.00 | 26 | 1006.9 |
| 20260901230043 | 92 | 360 | 9.0 | 23.0 | 0.00 | 0.00 | 0.00 | 26 | 1006.8 |
| 20260901224538 | 92 | 164 | 5.0 | 19.0 | 0.00 | 0.00 | 0.00 | 26 | 1006.9 |
| 20260901223035 | 91 | 188 | 10.0 | 19.0 | 0.00 | 0.00 | 0.00 | 25 | 1007.0 |
| 20260901221533 | 92 | 360 | 10.0 | 21.0 | 0.00 | 0.00 | 0.00 | 26 | 1007.2 |
| 20260901220032 | 92 | 200 | 13.0 | 21.0 | 0.00 | 0.00 | 0.00 | 26 | 1007.3 |
| 20260901214532 | 91 | 151 | 9.0 | 22.0 | 0.00 | 0.00 | 0.00 | 28 | 1007.5 |
| 20260901213030 | 92 | 360 | 11.0 | 21.0 | 0.00 | 0.00 | 0.00 | 28 | 1007.6 |
| 20260901211526 | 92 | 360 | 11.0 | 23.0 | 0.00 | 0.00 | 0.00 | 29 | 1007.9 |
| 20260901210023 | 92 | 196 | 11.0 | 18.0 | 0.00 | 0.00 | 0.00 | 30 | 1008.0 |
| 20260901204522 | 92 | 186 | 15.0 | 22.0 | 0.00 | 0.00 | 0.00 | 30 | 1008.3 |
| 20260901203018 | 91 | 159 | 11.0 | 20.0 | 0.00 | 0.00 | 0.00 | 29 | 1008.7 |
| 20260901201515 | 91 | 182 | 15.0 | 23.0 | 0.00 | 0.00 | 0.00 | 30 | 1009.0 |
| 20260901200017 | 90 | 135 | 9.0 | 18.0 | 0.00 | 0.00 | 0.00 | 32 | 1009.1 |
| 20260901194512 | 91 | 219 | 14.0 | 22.0 | 0.00 | 0.00 | 0.00 | 29 | 1009.3 |
| 20260901193009 | 90 | 190 | 13.0 | 21.0 | 0.00 | 0.00 | 0.00 | 31 | 1009.4 |
| 20260901191608 | 90 | 179 | 11.0 | 21.0 | 0.00 | 0.00 | 0.00 | 31 | 1009.7 |
| 20260901190007 | 90 | 202 | 11.0 | 24.0 | 0.00 | 0.00 | 0.00 | 32 | 1009.7 |
| 20260901184505 | 89 | 184 | 11.0 | 22.0 | 0.00 | 0.00 | 0.00 | 33 | 1010.0 |
| 20260901183008 | 89 | 196 | 14.0 | 21.0 | 0.00 | 0.00 | 0.00 | 33 | 1010.2 |
| 20260901181502 | 89 | 165 | 8.0 | 22.0 | 0.00 | 0.00 | 0.00 | 31 | 1010.3 |
| 20260901180059 | 89 | 155 | 11.0 | 19.0 | 0.00 | 0.00 | 0.00 | 31 | 1010.6 |
| 20260901174558 | 88 | 173 | 9.0 | 18.0 | 0.00 | 0.00 | 0.00 | 31 | 1010.7 |
| 20260901173136 | 88 | 226 | 10.0 | 17.0 | 0.00 | 0.00 | 0.00 | 33 | 1010.8 |
| 20260901171600 | 89 | 209 | 11.0 | 19.0 | 0.00 | 0.00 | 0.00 | 33 | 1010.8 |
| 20260901170100 | 87 | 195 | 6.0 | 21.0 | 0.00 | 0.00 | 0.00 | 34 | 1010.8 |
| 20260901164552 | 88 | 206 | 11.0 | 24.0 | 0.00 | 0.00 | 0.00 | 38 | 1010.8 |
| 20260901163107 | 86 | 225 | 19.0 | 23.0 | 0.00 | 0.00 | 0.00 | 42 | 1010.8 |
| 20260901161551 | 85 | 360 | 16.0 | 24.0 | 0.00 | 0.00 | 0.00 | 45 | 1010.7 |
| 20260901160042 | 84 | 228 | 19.0 | 23.0 | 0.00 | 0.00 | 0.00 | 46 | 1010.7 |
| 20260901154542 | 84 | 234 | 18.0 | 24.0 | 0.00 | 0.00 | 0.00 | 47 | 1010.7 |
| 20260901153036 | 82 | 360 | 14.0 | 22.0 | 0.00 | 0.00 | 0.00 | 50 | 1010.9 |
| 20260901151534 | 80 | 206 | 18.0 | 26.0 | 0.00 | 0.00 | 0.00 | 52 | 1011.0 |
| 20260901150029 | 79 | 222 | 18.0 | 23.0 | 0.00 | 0.00 | 0.00 | 53 | 1010.9 |
| 20260901144527 | 79 | 216 | 19.0 | 30.0 | 0.00 | 0.00 | 0.00 | 54 | 1011.0 |
| 20260901143027 | 79 | 183 | 16.0 | 25.0 | 0.00 | 0.00 | 0.00 | 53 | 1011.2 |
| 20260901141532 | 78 | 189 | 16.0 | 20.0 | 0.00 | 0.00 | 0.00 | 54 | 1011.2 |
| 20260901140023 | 77 | 223 | 13.0 | 17.0 | 0.00 | 0.00 | 0.00 | 55 | 1011.4 |
| 20260901134520 | 76 | 211 | 14.0 | 23.0 | 0.00 | 0.00 | 0.00 | 56 | 1011.4 |
| 20260901133020 | 75 | 198 | 12.0 | 22.0 | 0.00 | 0.00 | 0.00 | 57 | 1011.4 |
| 20260901131522 | 74 | 213 | 13.0 | 21.0 | 0.00 | 0.00 | 0.00 | 58 | 1011.4 |
| 20260901130016 | 73 | 209 | 13.0 | 17.0 | 0.00 | 0.00 | 0.00 | 59 | 1011.3 |
| 20260901124515 | 73 | 196 | 11.0 | 16.0 | 0.00 | 0.00 | 0.00 | 59 | 1011.1 |
| 20260901123028 | 72 | 201 | 9.0 | 13.0 | 0.00 | 0.00 | 0.00 | 59 | 1011.0 |
| 20260901121517 | 72 | 207 | 9.0 | 14.0 | 0.00 | 0.00 | 0.00 | 59 | 1010.9 |
| 20260901120011 | 71 | 199 | 8.0 | 13.0 | 0.00 | 0.00 | 0.00 | 59 | 1010.9 |
| 20260901114511 | 71 | 182 | 8.0 | 12.0 | 0.00 | 0.00 | 0.00 | 59 | 1010.9 |
| 20260901113012 | 72 | 180 | 8.0 | 16.0 | 0.00 | 0.00 | 0.00 | 57 | 1010.8 |
| 20260901111509 | 71 | 196 | 9.0 | 16.0 | 0.00 | 0.00 | 0.00 | 58 | 1010.7 |
| 20260901110009 | 71 | 205 | 8.0 | 14.0 | 0.00 | 0.00 | 0.00 | 57 | 1010.8 |
| 20260901104507 | 71 | 175 | 7.0 | 9.0 | 0.00 | 0.00 | 0.00 | 59 | 1010.7 |
| 20260901103008 | 70 | 192 | 6.0 | 10.0 | 0.00 | 0.00 | 0.00 | 58 | 1010.6 |
| 20260901101509 | 70 | 209 | 6.0 | 7.0 | 0.00 | 0.00 | 0.00 | 58 | 1010.6 |
| 20260901100004 | 70 | 159 | 4.0 | 7.0 | 0.00 | 0.00 | 0.00 | 57 | 1010.6 |